www.pogodaiklimat.ru

ПОГОДА в Монтичелло, KY

  • Прогноз погоды в Монтичелло
  • Монитор погоды в Монтичелло
  • Климат в Монтичелло

АРХИВ ПОГОДЫ в Монтичелло

Время (UTC), дата Ветер
(напр.,м/с)
 
Видим.   Явления Облачность Т
(С)
Тd
(С)
f
(%)
Тe
(С)
Тes
(С)
Комфортность

P
(гПа)

Po
(гПа)
Тmin
(С)
Tmax
(С)
R
(мм)
SD
(см)
11:56 20.05 СЗ  16 км    5/5 690 м  +21.1  +18.3  84  +25  +26  комфорт  1019.5  983.2         
12:56 20.05 З  16 км    ясно  +22.8  +16.7  68  +27  +31  душно  1019.6  983.5         
13:56 20.05 СЗ  16 км    8/8 750 м  +22.2  +17.2  73  +27  +28  душно  1020.2  983.8         
14:56 20.05 З  4
{9} 
16 км    5/5 930 м  +23.9  +16.7  64  +27  +31  жарко             
15:56 20.05 СЗ  16 км    5/5 990 м  +24.4  +16.1  60  +28  +33  душно  1019.8  983.5         
16:56 20.05 СЗ  4
{8} 
16 км    ясно  +25.6  +15.6  54  +29  +40  душно  1019.3  983.2  +20.6  +25.6     
17:56 20.05 З  16 км    ясно  +26.1  +13.9  47  +28  +39  жарко  1018.7  982.8         
18:56 20.05 З  7
{9} 
16 км    ясно  +26.7  +14.4  47  +29  +32  жарко  1018.3  982.2         
19:56 20.05 З  16 км    ясно  +27.2  +13.3  42  +29  +32  жарко  1018.1  982.2         
20:56 20.05 З  4
{10} 
16 км    ясно  +26.7  +14.4  47  +29  +35  жарко  1018.3  982.2         
21:56 20.05 З  16 км    ясно  +26.1  +12.2  42  +28  +31  жарко  1018.5  982.5         
22:56 20.05 СЗ  16 км    ясно  +24.4  +13.3  50  +27  +29  жарко  1018.3  982.2  +24.4  +27.2     
23:56 20.05 СВ  16 км    ясно  +18.9  +14.4  75  +20  +20    1018.5  981.9         
00:56 21.05 СВ  16 км    ясно  +17.8  +14.4  80  +17  +17               
01:56 21.05 СВ  16 км    ясно  +16.1  +13.9  87  +15  +15    1019.1  982.5         
02:56 21.05 З  16 км    ясно  +13.9  +13.3  96  +13  +13    1019.5  982.8         
03:56 21.05 З  16 км    ясно  +13.3  +12.8  97  +11  +11    1019.2  982.5         
04:56 21.05 З  16 км    ясно  +12.8  +12.8  100  +11  +11    1018.5  981.9  +12.8  +23.9     
05:56 21.05   16 км    ясно  +12.8  +12.2  96  +12  +12    1018.2  981.5         
06:56 21.05 СВ  16 км    ясно  +11.7  +11.1  96  +9  +9    1018.2  981.5         
07:56 21.05 СЗ  16 км    ясно  +11.7  +11.7  100  +10  +10    1018.1  981.5         
08:56 21.05 СЗ  16 км    ясно  +11.7  +11.7  100  +9  +9    1017.8  981.2         
09:56 21.05 С  16 км    ясно  +13.3  +12.8  97  +11  +11    1018.3  981.9         
10:21 21.05 СЗ  16 км    2/2 30 м  +14.0  +13.0  94  +13  +13      982.2         
10:56 21.05 СЗ  16 км    ясно  +15.0  +12.8  87  +14  +14    1018.9  982.5  +11.1  +15.0     
11:56 21.05 СЗ  16 км    ясно  +16.1  +13.3  83  +16  +17               
12:56 21.05 С  16 км    ясно  +18.3  +14.4  78  +18  +21    1019.8  982.8         
13:56 21.05 С  16 км    ясно  +20.0  +15.0  73  +22  +24  комфорт  1019.7  982.8         
14:56 21.05 нст  14 км    ясно  +22.2  +16.1  68  +26  +36  душно  1019.2  982.5         
15:56 21.05 нст  16 км    ясно  +23.9  +15.6  60  +27  +42  жарко  1018.4  981.9         
16:56 21.05 С  2
{8} 
16 км    ясно  +26.1  +17.2  58  +30  +48  душно  1017.4  980.9  +15.0  +26.1     
17:56 21.05 С  16 км    ясно  +27.2  +17.8  56  +31  +32  душно  1016.5  980.2         
18:56 21.05     16 км    ясно  +28.9  +18.3  53  +34  +59  опасность
солнечного
удара 
           
19:56 21.05 С  9
{10} 
16 км    ясно  +28.9  +18.3  53  +34  +34  очень
душно 
1015.6  979.2         
20:56 21.05 С  7
{9} 
16 км    ясно  +29.4  +17.8  50  +34  +36  очень
душно 
1015.6  979.2         
21:56 21.05 С  4
{9} 
16 км    ясно  +28.3  +18.3  55  +33  +37  очень
душно 
1015.2  978.9         
23:56 21.05 нст  16 км    8/0 2250 м
[средняя] 
+24.4  +17.2  64  +28  +28  душно  1015.5  979.2         
00:56 22.05 нст  16 км    ясно  +23.9  +17.2  66  +28  +28  душно  1015.7  979.6         
01:56 22.05 В  16 км    ясно  +22.2  +17.2  73  +27  +27  душно  1016.8  980.5         
02:56 22.05 З  16 км    ясно  +21.1  +16.7  76  +25  +25  комфорт  1016.9  980.9         
03:56 22.05 СВ  16 км    ясно  +20.6  +16.7  78  +24  +24  комфорт  1016.6  980.5         
04:56 22.05 З  16 км    ясно  +18.3  +16.1  87  +18  +18    1016.3  980.2  +18.3  +26.7     
05:56 22.05 З  16 км    ясно  +18.3  +16.1  87  +18  +18    1016.5  980.5         
06:27 22.05 нст  16 км    ясно  +19.0  +16.0  83  +21  +21  комфорт    980.9         
06:56 22.05 С  16 км    ясно  +18.9  +15.6  81  +20  +20    1016.6  980.5         
07:56 22.05 нст  16 км    ясно  +20.0  +15.6  76  +23  +23  комфорт  1016.9  981.2         
08:56 22.05 СВ  16 км    ясно  +21.1  +15.6  71  +24  +24  комфорт  1016.5  980.9         
09:56 22.05 нст  16 км    ясно  +20.0  +16.1  78  +23  +23  комфорт  1017.8  981.9         

 

Местоположение метеостанции Wayne County Airport: широта 36.8553 долгота -84.8561 высота над уровнем моря 294 м.

В архиве по умолчанию представлена погода в Монтичелло за последние 1-2 суток. Обновление информации о фактической погоде в базе происходит ежечасно! Архивные данные за месяц целиком и за предыдущие месяцы Вы можете получить, выбрав интересующий диапазон дат из раскрывающегося списка и нажав кнопку "Ввод!".

Внимание! Архив погоды МЕТАР в базе сайта хранится не более 60 дней. Нет смысла пытаться выбрать более раннюю дату.

Внимание! Время в таблицах - всемирное. Для получения местного времени необходимо прибавить поправку, которая в Монтичелло равна -5 ч.

Ветер - указаны скорость ветра в м/с и направление, откуда дует ветер: С - северный, СВ - северо-восточный, В - восточный, ЮВ - юго-восточный, Ю - южный, ЮЗ - юго-западный, З - западный, СЗ - северо-западный.
Видимость - горизонтальная дальность видимости в метрах или километрах. При видимости от 1 до 10 км при отсутствии осадков обычно наблюдается дымка, при ухудшении видимости до 1 км и менее - туман. В сухую погоду видимость может ухудшаться дымом, пылью или мглою.
Атмосферные явления - указаны явления, наблюдавшиеся в указанный момент времени.
Облачность - указаны через наклонную черту верхняя и нижняя облачность в баллах и высота нижней границы облаков в метрах. Внимание: облачность, как и прочие метеорологические величины в США измеряются автоматическими метеостанциями. Указанные значения в баллах носят условный характер и показывают процент времени, в течение которого, в среднем, лазерный луч высотомера отражался от облаков обратно.
T - Температура воздуха - температура, измеренная на высоте 2 м над землей.
Td - Температура точки росы - температура, при понижении до которой содержащийся в воздухе водяной пар достигнет насыщения.
f - Относительная влажность воздуха - влажноcть воздуха, измеренная на высоте 2 м над землей.
Te - Эффективная температура - температура, которую ощущает одетый по сезону человек в тени. Характеристика душности погоды. При расчете учитывается влияние влажности воздуха и скорости ветра на теплоощущения человека.
Tes - Эффективная температура на солнце - температура, которую ощущает человек, с поправкой на солнечный нагрев. Характеристика знойности погоды. Зависит от высоты солнца над горизонтом, облачности и скорости ветра. Ночью, в пасмурную погоду, а также при ветре 12 м/с и более поправка равна нулю.
P - Атмосферное давление - приведенное к уровню моря атмосферное давление.
Po - Атмосферное давление - измеренное на уровне метеостанции атмосферное давление.
Tmin - Минимальная температура - минимум температуры воздуха на высоте 2 м над землей.
Tmax - Максимальная температура - максимум температуры воздуха на высоте 2 м над землей.
R - Количество осадков - Количество выпавших осадков за 3 или 6 часов, мм.
SD - Снежный покров - Высота снежного покрова, см.